| time (UTC) | temp F | wind direction | speed knots | gust knots | rain 1hr in | rain 24hr in | rain mn in | humidity % | barometer mb |
| 20260510010048 | 65 | 195 | 1.7 | 5.2 | 0.00 | 0.00 | 0.00 | 40 | 1019.4 |
| 20260510004545 | 65 | 252 | 4.3 | 7.0 | 0.00 | 0.00 | 0.00 | 40 | 1019.4 |
| 20260510003049 | 65 | 228 | 0.0 | 5.2 | 0.00 | 0.00 | 0.00 | 41 | 1019.4 |
| 20260510001544 | 64 | 225 | 0.9 | 4.3 | 0.00 | 0.00 | 0.00 | 41 | 1019.4 |
| 20260510000044 | 64 | 262 | 1.7 | 7.0 | 0.00 | 0.00 | 0.00 | 40 | 1019.4 |
| 20260509234542 | 65 | 246 | 5.2 | 9.6 | 0.00 | 0.00 | 0.00 | 39 | 1019.3 |
| 20260509233041 | 65 | 261 | 0.9 | 7.0 | 0.00 | 0.00 | 0.00 | 39 | 1019.2 |
| 20260509231543 | 65 | 269 | 3.5 | 9.6 | 0.00 | 0.00 | 0.00 | 38 | 1019.2 |
| 20260509230042 | 65 | 236 | 3.5 | 7.0 | 0.00 | 0.00 | 0.00 | 38 | 1019.4 |
| 20260509224538 | 65 | 293 | 2.6 | 5.2 | 0.00 | 0.00 | 0.00 | 38 | 1019.4 |
| 20260509223036 | 65 | 235 | 1.7 | 6.1 | 0.00 | 0.00 | 0.00 | 37 | 1019.4 |
| 20260509221535 | 65 | 130 | 0.9 | 4.3 | 0.00 | 0.00 | 0.00 | 39 | 1019.6 |
| 20260509220037 | 64 | 254 | 1.7 | 5.2 | 0.00 | 0.00 | 0.00 | 38 | 1019.7 |
| 20260509214533 | 63 | 317 | 0.0 | 1.7 | 0.00 | 0.00 | 0.00 | 39 | 1019.8 |
| 20260509213030 | 64 | 103 | 1.7 | 3.5 | 0.00 | 0.00 | 0.00 | 38 | 1019.8 |
| 20260509211529 | 64 | 195 | 0.9 | 5.2 | 0.00 | 0.00 | 0.00 | 38 | 1019.8 |
| 20260509210030 | 64 | 249 | 0.0 | 2.6 | 0.00 | 0.00 | 0.00 | 38 | 1019.9 |
| 20260509204526 | 63 | 273 | 0.9 | 4.3 | 0.00 | 0.00 | 0.00 | 39 | 1020.0 |
| 20260509203027 | 63 | 283 | 2.6 | 4.3 | 0.00 | 0.00 | 0.00 | 38 | 1019.9 |
| 20260509201524 | 64 | 312 | 2.6 | 5.2 | 0.00 | 0.00 | 0.00 | 37 | 1019.7 |
| 20260509200024 | 64 | 357 | 0.9 | 5.2 | 0.00 | 0.00 | 0.00 | 37 | 1019.7 |
| 20260509194524 | 64 | 184 | 1.7 | 8.7 | 0.00 | 0.00 | 0.00 | 37 | 1019.8 |
| 20260509193021 | 64 | 260 | 1.7 | 7.0 | 0.00 | 0.00 | 0.00 | 37 | 1019.8 |
| 20260509191519 | 64 | 217 | 0.9 | 4.3 | 0.00 | 0.00 | 0.00 | 36 | 1019.9 |
| 20260509190017 | 64 | 178 | 0.9 | 7.0 | 0.00 | 0.00 | 0.00 | 37 | 1019.9 |
| 20260509184520 | 63 | 233 | 2.6 | 5.2 | 0.00 | 0.00 | 0.00 | 38 | 1019.9 |
| 20260509183015 | 63 | 231 | 1.7 | 6.1 | 0.00 | 0.00 | 0.00 | 37 | 1020.0 |
| 20260509181512 | 63 | 216 | 4.3 | 9.6 | 0.00 | 0.00 | 0.00 | 37 | 1019.8 |
| 20260509180009 | 63 | 127 | 2.6 | 6.1 | 0.00 | 0.00 | 0.00 | 37 | 1019.7 |
| 20260509174507 | 63 | 210 | 0.9 | 3.5 | 0.00 | 0.00 | 0.00 | 38 | 1019.7 |
| 20260509173004 | 62 | 221 | 1.7 | 4.3 | 0.00 | 0.00 | 0.00 | 38 | 1019.6 |
| 20260509171502 | 61 | 162 | 0.0 | 3.5 | 0.00 | 0.00 | 0.00 | 40 | 1019.6 |
| 20260509170002 | 61 | 229 | 0.9 | 6.1 | 0.00 | 0.00 | 0.00 | 40 | 1019.6 |
| 20260509164558 | 61 | 243 | 2.6 | 6.1 | 0.00 | 0.00 | 0.00 | 39 | 1019.6 |
| 20260509163110 | 61 | 257 | 0.0 | 3.5 | 0.00 | 0.00 | 0.00 | 39 | 1019.5 |
| 20260509161601 | 61 | 79 | 1.7 | 3.5 | 0.00 | 0.00 | 0.00 | 38 | 1019.4 |
| 20260509160054 | 61 | 185 | 0.0 | 2.6 | 0.00 | 0.00 | 0.00 | 39 | 1019.2 |
| 20260509154549 | 61 | 345 | 0.9 | 4.3 | 0.00 | 0.00 | 0.00 | 39 | 1019.1 |
| 20260509153044 | 60 | 16 | 0.0 | 2.6 | 0.00 | 0.00 | 0.00 | 43 | 1019.1 |
| 20260509151541 | 58 | 24 | 0.0 | 3.5 | 0.00 | 0.00 | 0.00 | 44 | 1018.9 |
| 20260509150037 | 57 | 31 | 1.7 | 3.5 | 0.00 | 0.00 | 0.00 | 46 | 1018.8 |
| 20260509144538 | 56 | 23 | 2.6 | 5.2 | 0.00 | 0.00 | 0.00 | 47 | 1018.7 |
| 20260509143039 | 56 | 14 | 3.5 | 6.1 | 0.00 | 0.00 | 0.00 | 49 | 1018.6 |
| 20260509141538 | 55 | 43 | 1.7 | 4.3 | 0.00 | 0.00 | 0.00 | 49 | 1018.4 |
| 20260509140027 | 54 | 78 | 2.6 | 4.3 | 0.00 | 0.00 | 0.00 | 50 | 1018.3 |
| 20260509134526 | 53 | 37 | 2.6 | 4.3 | 0.00 | 0.00 | 0.00 | 51 | 1018.3 |
| 20260509133025 | 52 | 80 | 0.9 | 2.6 | 0.00 | 0.00 | 0.00 | 53 | 1018.2 |
| 20260509131525 | 51 | 68 | 0.9 | 4.3 | 0.00 | 0.00 | 0.00 | 54 | 1018.0 |
| 20260509130020 | 50 | 35 | 2.6 | 5.2 | 0.00 | 0.00 | 0.00 | 56 | 1017.9 |
| 20260509124517 | 50 | 72 | 0.0 | 5.2 | 0.00 | 0.00 | 0.00 | 56 | 1017.6 |
| 20260509123020 | 49 | 238 | 0.9 | 1.7 | 0.00 | 0.00 | 0.00 | 57 | 1017.4 |
| 20260509121516 | 49 | 70 | 0.0 | 2.6 | 0.00 | 0.00 | 0.00 | 57 | 1017.4 |
| 20260509120010 | 50 | 8 | 1.7 | 2.6 | 0.00 | 0.00 | 0.00 | 57 | 1017.0 |
| 20260509114509 | 50 | 302 | 0.0 | 0.9 | 0.00 | 0.00 | 0.00 | 57 | 1016.9 |
| 20260509113008 | 49 | 330 | 0.0 | 2.6 | 0.00 | 0.00 | 0.00 | 57 | 1016.8 |
| 20260509111507 | 48 | 295 | 0.0 | 0.0 | 0.00 | 0.00 | 0.00 | 58 | 1016.5 |
| 20260509110004 | 48 | 295 | 0.0 | 0.9 | 0.00 | 0.00 | 0.00 | 58 | 1016.5 |
| 20260509104506 | 48 | 295 | 0.0 | 0.9 | 0.00 | 0.00 | 0.00 | 57 | 1016.4 |
| 20260509103103 | 47 | 245 | 0.0 | 0.9 | 0.00 | 0.00 | 0.00 | 58 | 1016.3 |
| 20260509101559 | 47 | 12 | 0.0 | 0.0 | 0.00 | 0.00 | 0.00 | 58 | 1016.0 |
| 20260509100110 | 47 | 303 | 0.0 | 0.0 | 0.00 | 0.00 | 0.00 | 59 | 1015.9 |
| 20260509094555 | 47 | 303 | 0.0 | 0.9 | 0.00 | 0.00 | 0.00 | 58 | 1015.8 |
| 20260509093050 | 48 | 312 | 0.0 | 0.0 | 0.00 | 0.00 | 0.00 | 57 | 1015.6 |
| 20260509091602 | 48 | 312 | 0.0 | 0.9 | 0.00 | 0.00 | 0.00 | 56 | 1015.6 |
| 20260509090043 | 49 | 290 | 0.0 | 0.0 | 0.00 | 0.00 | 0.00 | 55 | 1015.4 |
| 20260509084540 | 49 | 293 | 0.0 | 0.9 | 0.00 | 0.00 | 0.00 | 55 | 1015.3 |
| 20260509083043 | 50 | 338 | 0.0 | 1.7 | 0.00 | 0.00 | 0.00 | 53 | 1015.2 |
| 20260509081536 | 51 | 295 | 0.0 | 0.9 | 0.00 | 0.00 | 0.00 | 52 | 1015.2 |
| 20260509080039 | 51 | 283 | 0.0 | 0.9 | 0.00 | 0.00 | 0.00 | 53 | 1015.1 |
| 20260509074531 | 52 | 324 | 0.0 | 0.9 | 0.00 | 0.00 | 0.00 | 51 | 1015.0 |
| 20260509073027 | 53 | 276 | 0.0 | 1.7 | 0.00 | 0.00 | 0.00 | 50 | 1015.0 |
| 20260509071523 | 53 | 242 | 0.0 | 1.7 | 0.00 | 0.00 | 0.00 | 49 | 1015.0 |
| 20260509070051 | 55 | 11 | 0.0 | 3.5 | 0.00 | 0.00 | 0.00 | 47 | 1014.7 |
| 20260509064549 | 54 | 11 | 2.6 | 6.1 | 0.00 | 0.00 | 0.00 | 48 | 1014.6 |
| 20260509063054 | 54 | 347 | 1.7 | 3.5 | 0.00 | 0.00 | 0.00 | 47 | 1014.5 |
| 20260509061556 | 55 | 333 | 1.7 | 4.3 | 0.00 | 0.00 | 0.00 | 46 | 1014.5 |
| 20260509060040 | 56 | 20 | 3.5 | 5.2 | 0.00 | 0.00 | 0.00 | 45 | 1014.2 |
| 20260509054549 | 56 | 17 | 3.5 | 5.2 | 0.00 | 0.00 | 0.00 | 43 | 1014.2 |
| 20260509053053 | 57 | 12 | 3.5 | 5.2 | 0.00 | 0.00 | 0.00 | 41 | 1014.0 |
| 20260509051536 | 58 | 10 | 2.6 | 5.2 | 0.00 | 0.00 | 0.00 | 38 | 1013.9 |
| 20260509050034 | 59 | 18 | 5.2 | 8.7 | 0.00 | 0.00 | 0.00 | 36 | 1013.7 |
| 20260509044543 | 61 | 26 | 6.1 | 12.2 | 0.00 | 0.00 | 0.00 | 32 | 1013.4 |
| 20260509043004 | 60 | 24 | 5.2 | 11.3 | 0.00 | 0.00 | 0.00 | 32 | 1013.3 |
| 20260509041504 | 58 | 278 | 0.9 | 3.5 | 0.00 | 0.00 | 0.00 | 35 | 1013.0 |
| 20260509040001 | 59 | 340 | 0.9 | 3.5 | 0.00 | 0.00 | 0.00 | 34 | 1012.6 |
| 20260509034501 | 59 | 23 | 0.9 | 2.6 | 0.00 | 0.00 | 0.00 | 33 | 1012.3 |
| 20260509033100 | 59 | 333 | 1.7 | 4.3 | 0.00 | 0.00 | 0.00 | 32 | 1012.2 |
| 20260509031603 | 60 | 330 | 2.6 | 5.2 | 0.00 | 0.00 | 0.00 | 31 | 1011.8 |
| 20260509030057 | 61 | 4 | 1.7 | 3.5 | 0.00 | 0.00 | 0.00 | 31 | 1011.4 |
| 20260509024558 | 62 | 353 | 2.6 | 5.2 | 0.00 | 0.00 | 0.00 | 30 | 1011.2 |
| 20260509023055 | 64 | 355 | 2.6 | 5.2 | 0.00 | 0.00 | 0.00 | 29 | 1010.9 |
| 20260509021554 | 66 | 32 | 5.2 | 9.6 | 0.00 | 0.00 | 0.00 | 27 | 1010.9 |
| 20260509020033 | 67 | 13 | 7.0 | 10.4 | 0.00 | 0.00 | 0.00 | 26 | 1010.8 |
| 20260509014523 | 68 | 27 | 6.1 | 10.4 | 0.00 | 0.00 | 0.00 | 26 | 1010.8 |
| 20260509013020 | 69 | 23 | 6.1 | 13.0 | 0.00 | 0.00 | 0.00 | 25 | 1010.8 |
| 20260509011520 | 69 | 1 | 7.8 | 13.0 | 0.00 | 0.00 | 0.00 | 24 | 1010.7 |